Starlink 2449

operational
NORAD ID: 48112 Int'l Des: 2021-027 Owner: SPXS Country: US Constellation: starlink
LEOCIRCULARSTARLINK_TYPE

About Starlink 2449

Description loading...

Live Position

Loading 3D Globe...

Upcoming Passes

Altitude History

Altitude vs Time

uPlot chart will show altitude changes over time

Two-Line Element Set

1 48112U 21027W 25296.81380981 .00014763 00000-0 10077-2 0 9998
2 48112 53.0546 71.2392 0001495 100.9409 259.1749 15.06405609251716
Epoch: Oct 23, 2025 • Age: 19 hours

Current Status

Altitude 556.3 km
Velocity 7.58 km/s
Sub-Earth Point -28.18°S, 153.63°E
Launch Date Apr 7, 2021
Age 4.5 years
Type internet

Technical Details

Classification Payload
Mass 260.00 kg
Dry Mass 248.00 kg
Total Mass 260.00 kg
Length 0.20 m
Diameter 2.80 m
Span 9.00 m
Shape Box + pan
Manufacturer SPXS
Bus Type Starlink
Phase Status In Orbit
Owner/State SPXS/US

Large Constellations

Loading constellations...